Location: Clanezzo
(45.7500°N, 9.6000°E)
Time: 14:21:01
(UTC+00:00)

EO-79 - Pass Details

Date: 02 July 2022
Orbit: 588 x 603 km, 98.0° (Epoch: 18 August)

Event Time Altitude Azimuth Distance (km) Brightness Sun altitude
Rises 02:42:47 0° 353° (N) 2,857 ? -8.0°
Reaches altitude 10° 02:46:20 10° 321° (NW) 1,952 ? -7.5°
Maximum altitude 02:47:48 12° 301° (WNW) 1,843 ? -7.3°
Drops below altitude 10° 02:49:16 10° 281° (W) 1,950 ? -7.2°
Enters shadow 02:51:25 - 258° (WSW) 2,417 ? -6.9°
